Cloud_Cover
4 2 10 9 0 0 0 0 0 0 32 48 35 18 15 9 0 0 0 0 0 0 0 0 0 0 0 0 0 0 0 0 0 0 2 6 99 100 100 100 100 100 98 23 73 65 69
3 4 9 14 0 1 6 17 8 18 87 100 100 83 16 14 2 0 0 0 0 0 0 0 0 42 0 0 0 0 0 0 0 0 2 5 54 100 100 100 100 100 95 23 26 18 70
82 34 45 2 13 2 6 11 19 100 100 100 100 95 21 19 16 2 0 0 0 0 0 0 0 0 0 0 0 0 0 0 0 0 0 4 75 100 100 100 100 100 93 57 85 94 75
100 100 100 74 96 69 100 100 100 100 100 100 100 100 68 19 18 1 1 0 0 0 0 0 0 0 0 0 0 0 0 0 0 0 0 98 0 98 100 100 100 100 100 77 99 100 22
100 100 100 100 100 100 100 100 100 100 100 100 100 100 100 46 10 12 1 0 0 0 0 1 0 0 0 0 0 0 0 0 0 0 0 98 30 11 100 100 100 27 93 90 100 100 100
100 100 100 84 98 92 96 100 100 100 100 100 100 100 100 62 27 16 5 0 0 0 0 0 0 0 0 0 0 0 0 0 0 0 0 10 2 0 2 83 100 15 86 100 100 94 100
100 100 100 92 100 100 100 100 100 100 100 100 100 100 100 14 0 22 8 0 0 0 0 0 0 0 0 0 0 0 0 0 0 0 0 5 5 0 0 8 79 100 73 33 25 100 99
100 100 100 100 100 100 100 100 100 100 100 100 100 100 89 0 0 5 78 0 0 0 0 0 0 0 0 0 0 0 0 0 0 0 5 5 0 3 5 5 28 100 100 100 25 100 100
100 100 100 100 100 100 100 100 100 100 100 100 100 100 28 0 7 1 0 0 0 0 0 0 0 0 0 0 0 0 0 0 0 0 5 5 11 4 41 4 30 100 99 100 100 100 100
100 99 100 100 100 100 100 100 100 100 100 100 100 81 0 32 0 0 0 0 0 0 0 0 0 0 0 0 0 0 0 0 0 1 31 7 73 32 100 82 100 100 100 100 88 100 100
100 95 71 100 100 100 100 100 100 100 100 88 3 0 0 54 6 0 1 2 52 0 0 0 0 0 0 0 0 0 0 0 0 0 20 38 44 63 1 99 100 100 100 100 100 100 100
100 100 100 66 100 100 100 100 100 96 6 0 0 0 40 0 15 4 16 67 1 4 3 0 1 0 0 0 0 0 0 0 0 0 5 49 85 77 0 33 100 100 100 100 100 100 98
100 69 11 0 13 100 100 100 100 5 0 0 0 0 88 0 0 0 2 55 0 0 2 1 25 3 0 0 0 0 0 0 0 0 2 26 100 95 68 95 97 100 100 100 100 49 33
100 100 98 100 73 25 93 14 23 1 8 14 10 10 0 2 0 0 0 52 1 1 90 5 5 1 5 0 0 0 0 0 0 0 0 100 100 100 100 100 100 100 100 100 100 94 100
0 5 4 65 2 4 0 0 11 21 40 64 16 0 0 0 0 0 0 2 21 2 98 74 46 4 37 4 2 0 0 0 0 0 0 99 100 100 100 90 22 90 100 100 100 100 100
72 20 20 5 5 0 0 0 6 14 44 0 38 0 0 0 0 0 0 0 5 0 7 9 34 89 94 100 85 5 2 0 1 1 0 2 96 94 100 18 90 80 100 98 100 100 100
100 0 30 45 35 2 0 0 1 41 8 0 5 0 0 0 0 0 0 1 1 0 0 20 40 85 12 5 64 99 1 1 3 8 3 0 3 46 69 87 51 100 100 100 100 59 100
5 0 0 70 99 15 0 0 5 65 50 0 0 4 3 0 0 0 1 5 0 0 0 5 0 4 5 5 3 6 6 0 0 3 6 3 2 9 36 78 52 65 100 41 10 96 100
0 0 0 0 0 1 3 76 100 52 100 100 5 5 56 0 0 0 1 5 0 0 5 3 2 5 81 80 3 0 5 21 94 100 100 7 11 94 38 15 100 100 100 100 100 100 79
0 0 0 3 4 39 100 100 100 100 100 100 33 5 36 1 0 0 0 3 0 0 0 21 2 5 45 84 87 15 0 53 99 100 88 99 100 99 75 92 100 100 100 100 100 100 100
0 4 5 100 100 77 100 100 100 100 100 100 100 12 98 100 27 5 1 0 5 0 0 4 4 5 73 48 3 4 5 8 9 93 25 94 100 100 40 99 100 100 100 78 100 100 100
2 5 36 100 100 100 100 100 100 100 100 100 100 100 76 98 68 1 0 99 4 5 0 0 90 6 9 18 93 100 97 100 94 36 52 99 85 8 5 91 100 43 100 100 100 100 100
5 5 90 100 100 100 100 100 100 100 100 100 100 96 81 34 76 100 5 21 11 5 2 0 5 68 4 100 82 73 44 98 6 0 1 5 8 4 0 58 100 78 74 100 100 100 76
5 16 99 100 100 100 100 100 100 78 80 67 100 100 100 100 82 96 66 1 4 32 4 0 1 11 17 4 24 13 33 4 0 0 4 2 5 4 0 2 1 3 95 100 100 100 97
16 74 97 100 100 100 100 100 100 96 98 94 42 64 5 11 39 43 96 8 1 4 3 5 17 3 2 4 22 100 100 100 89 95 90 94 100 92 5 88 88 98 100 100 100 78 62
71 100 99 100 100 100 100 100 100 100 100 2 0 1 65 2 5 5 53 100 5 8 100 100 97 5 5 3 96 100 100 96 97 100 100 100 100 71 33 100 100 100 67 37 20 5 3
99 100 100 98 100 96 100 100 100 100 100 56 2 0 0 26 5 5 23 100 100 49 38 94 30 4 1 2 0 24 40 100 100 100 100 74 12 94 100 100 100 100 16 7 7 5 2
100 100 100 100 100 100 100 100 100 100 100 81 0 26 78 91 16 5 6 100 100 70 5 2 75 13 83 57 4 5 1 30 64 99 100 100 88 5 15 75 96 65 98 100 98 100 94
100 100 100 100 100 100 100 100 100 100 100 100 34 49 9 19 11 17 76 100 100 98 5 5 20 39 50 100 96 4 13 33 5 4 5 24 12 6 5 5 4 4 2 0 0 7 4